Tracking 18852 objects as of 24-Nov-2017
HD Live streaming from Space Station
objects crossing your sky now

FENGYUN 1C DEB

Track FENGYUN 1C DEB now!
10-day predictions


NORAD ID: 30498
Int'l Code: 1999-025AHL
Perigee: 838.8 km
Apogee: 1,006.1 km
Inclination: 99.3 °
Period: 103.3 minutes
Semi major axis: 7293 km
RCS: 0.027 m2 (small)
Launch date: May 10, 1999
Source: People's Republic of China (PRC)
Launch site: Taiyaun Space Center, China (TSC)

Note: This is SATELLITE DEBRIS
aabbcc
Your satellite tracking list
Your tracking list is empty




NASA's NSSDC Master Catalog

Two Line Element Set (TLE):
1 30498U 99025AHL 17327.17593951  .00000816  00000-0  61941-3 0  9998
2 30498  99.2557 304.2202 0114695 258.4669 165.0943 13.93809258548892
Source of the keplerian elements: AFSPC